Vorticity
nan nan nan nan nan nan nan nan nan nan nan nan nan nan nan nan nan nan nan nan nan nan nan nan nan nan nan nan nan nan nan nan nan nan nan nan nan nan nan nan nan nan nan nan
nan 15 14 11 11 9 11 11 12 13 13 10 11 8 8 8 8 7 7 11 17 20 16 14 17 15 13 14 14 15 17 20 19 13 6 6 6 8 11 11 12 12 13 nan
nan 13 16 27 21 16 14 14 14 8 11 9 11 14 11 10 8 8 7 8 11 16 21 17 15 14 11 11 15 16 16 24 18 7 7 9 11 11 11 10 10 12 11 nan
nan 10 8 8 18 15 13 12 17 12 9 10 11 10 12 10 8 9 8 9 10 10 13 14 13 10 10 11 13 11 12 18 16 10 11 10 10 13 12 10 11 11 11 nan
nan 5 9 19 13 6 7 8 17 13 6 7 10 17 20 6 7 9 11 10 10 8 10 11 10 11 11 11 10 10 12 12 13 12 6 7 13 16 17 14 12 9 10 nan
nan 7 9 21 14 10 11 18 4 4 7 8 11 15 15 12 7 9 8 6 8 12 11 11 11 11 8 9 11 9 9 11 11 14 13 11 11 12 12 13 16 18 18 nan
nan 7 6 10 12 9 7 6 5 9 7 8 10 12 10 13 9 9 6 7 9 12 9 11 10 11 12 10 8 11 10 10 14 13 12 14 15 14 11 9 12 14 14 nan
nan 15 17 7 6 -2 5 7 10 8 7 8 11 14 15 12 11 8 9 6 8 8 9 12 13 10 6 9 10 12 12 12 12 10 11 14 14 13 13 12 8 9 9 nan
nan 9 14 3 4 11 11 12 11 10 8 9 11 14 14 16 14 7 7 6 6 7 8 9 11 9 9 8 11 12 12 11 10 10 10 11 10 13 12 11 11 9 8 nan
nan 4 -3 -2 10 12 9 13 13 11 9 9 11 13 16 19 13 7 5 6 8 10 13 8 5 9 9 9 12 12 12 12 12 11 10 12 12 10 9 11 8 9 12 nan
nan 5 5 8 7 3 6 10 14 13 9 9 11 12 18 21 12 9 8 7 7 9 11 13 13 8 6 10 14 12 11 11 12 11 12 11 7 11 14 10 11 14 12 nan
nan 10 10 9 7 3 4 14 15 15 12 12 12 14 14 14 15 14 9 5 9 11 10 11 11 11 9 10 11 12 12 12 13 11 11 11 14 9 5 9 12 12 10 nan
nan 5 7 12 13 9 8 14 21 13 10 11 12 11 13 13 12 13 11 8 9 9 10 10 8 9 10 10 11 12 12 11 10 9 10 11 12 13 10 4 5 8 8 nan
nan 9 15 14 11 10 7 13 19 13 12 12 9 10 8 11 15 12 9 9 10 10 7 7 10 12 11 11 12 11 14 11 6 9 11 10 10 11 11 12 14 10 5 nan
nan 10 12 14 16 16 13 18 14 12 11 11 8 9 10 12 10 9 12 13 8 9 11 11 12 11 11 10 10 11 12 12 9 10 11 10 10 10 10 9 9 15 15 nan
nan 9 14 15 17 18 18 15 11 10 10 10 11 10 10 9 9 10 11 10 9 9 14 15 13 10 9 9 10 12 10 9 9 7 9 10 8 9 9 10 10 10 7 nan
nan 13 13 11 12 17 16 12 11 10 11 10 11 9 13 10 9 10 7 10 10 10 11 11 10 9 9 10 10 9 10 10 11 8 8 11 11 9 11 10 9 9 13 nan
nan 11 8 11 11 15 15 14 13 12 12 10 9 12 14 15 11 10 11 11 11 10 9 10 15 9 8 11 9 11 10 9 9 11 9 9 10 11 11 12 12 10 12 nan
nan 11 8 12 17 16 16 15 12 13 16 14 13 14 8 17 15 12 15 12 14 10 7 15 18 14 9 8 10 12 9 9 10 10 12 11 8 11 10 11 12 13 12 nan
nan 12 15 18 18 17 15 13 16 14 12 15 15 10 7 11 17 13 9 8 13 12 10 19 14 12 12 6 11 11 11 10 11 12 11 12 11 10 12 11 11 12 12 nan
nan 16 15 14 16 19 17 17 15 13 13 11 7 12 14 11 15 12 9 7 9 10 14 9 9 16 13 6 13 7 9 12 12 12 10 11 12 10 11 11 11 12 12 nan
nan 15 12 16 12 10 18 20 14 9 6 9 20 22 14 12 9 6 11 14 6 9 16 9 6 8 7 14 17 13 11 11 13 12 12 11 11 11 11 11 12 11 13 nan
nan 17 15 11 9 9 13 16 11 9 11 11 19 18 13 10 14 13 7 9 9 16 16 7 6 9 15 22 10 11 12 11 12 12 12 12 12 12 11 13 12 13 14 nan
nan 17 18 14 11 7 11 11 12 12 11 9 5 10 19 18 12 11 12 10 7 7 8 9 9 10 20 17 12 11 11 11 11 10 11 11 11 10 11 10 8 11 14 nan
nan 14 14 12 9 9 14 15 10 7 6 8 11 10 11 15 14 12 12 5 7 12 10 8 8 13 16 11 10 11 11 11 11 11 12 12 13 12 12 10 9 9 9 nan
nan 9 11 11 11 13 9 9 8 9 8 6 11 14 13 13 11 9 7 9 11 11 10 8 8 13 11 10 11 11 12 12 11 12 11 11 12 12 11 10 11 11 13 nan
nan nan nan nan nan nan nan nan nan nan nan nan nan nan nan nan nan nan nan nan nan nan nan nan nan nan nan nan nan nan nan nan nan nan nan nan nan nan nan nan nan nan nan nan
CAPE
0 0 0 0 0 0 0 0 0 0 0 0 14 74 100 6 16 41 154 136 213 323 384 474 723 1015 1106 1437 1617 1564 1731 1666 1701 1444 1072 1080 946 765 487 532 413 388 597 1117
0 0 0 0 0 0 0 0 0 0 0 100 55 65 94 43 46 101 136 292 353 291 185 328 544 740 614 1131 1186 1428 1530 1618 1516 1417 931 894 766 607 554 435 317 330 295 226
0 0 0 0 0 0 0 0 2 40 64 36 45 95 69 72 145 50 7 54 240 127 351 315 352 193 144 345 737 809 896 921 1202 1086 956 817 635 631 448 250 221 379 277 343
0 0 0 0 0 0 0 3 59 59 65 37 67 68 56 280 238 97 30 29 22 23 4 37 14 38 13 34 64 380 601 576 734 919 765 665 734 454 346 359 351 242 256 468
0 0 0 0 0 11 34 35 62 68 54 28 27 49 133 401 152 25 2 8 42 59 17 24 5 20 13 11 8 5 267 216 344 569 495 590 595 657 693 631 292 100 128 213
0 0 0 70 146 62 102 92 87 66 71 73 74 65 289 624 263 112 23 83 85 59 52 18 3 30 12 7 9 6 28 219 263 549 586 729 707 615 585 553 506 531 427 198
1 1 2 120 202 190 118 264 201 237 191 219 233 421 542 658 476 101 19 134 70 62 80 55 50 46 3 13 17 9 218 44 199 410 642 675 642 658 582 649 748 542 91 14
43 51 65 202 247 226 354 362 289 570 443 650 521 731 715 604 567 80 2 13 57 55 67 107 62 58 35 0 38 34 51 58 106 308 327 625 838 826 838 853 748 388 151 5
31 147 297 86 87 101 206 363 535 693 669 723 640 757 653 688 790 12 0 0 51 63 70 57 139 79 46 0 22 56 48 108 129 74 145 488 590 521 345 542 831 449 259 209
4 9 41 95 62 43 123 414 647 675 858 641 752 825 713 907 818 562 88 38 118 122 104 107 45 170 64 7 1 8 14 16 44 1 29 116 145 122 50 13 9 26 82 148
55 64 110 108 25 57 58 124 300 860 932 684 771 729 848 669 867 661 254 90 183 118 154 198 206 204 100 0 0 6 0 0 0 0 0 0 12 107 92 27 0 8 10 14
10 1 5 3 0 5 30 38 130 801 830 855 954 798 645 535 414 652 347 185 173 149 134 175 166 163 53 0 0 6 4 2 0 6 11 3 0 4 0 0 1 1 0 0
0 0 0 0 4 12 84 484 391 954 908 982 821 638 565 398 391 521 192 194 299 122 66 101 152 157 57 0 0 0 0 5 17 18 35 46 56 17 73 0 1 0 1 1
0 0 0 1 20 3 150 339 572 861 1075 1190 778 596 559 338 487 443 347 383 278 104 140 139 107 128 21 0 0 0 0 0 15 14 9 18 20 18 24 34 32 29 0 0
0 336 164 180 337 149 427 904 995 1095 1181 1188 1090 718 546 434 398 368 335 421 252 77 178 213 161 106 0 0 0 0 0 0 0 0 0 0 0 2 4 6 7 11 38 0
269 110 326 716 873 939 1172 1203 1175 1121 1090 1123 1008 887 597 702 309 391 850 697 400 232 161 179 80 14 0 0 0 0 1 0 0 0 0 0 0 0 0 0 0 2 1 2
187 90 419 456 750 896 1106 1238 1193 1026 1048 1021 946 891 810 791 466 551 335 453 650 144 333 304 76 21 0 0 0 0 1 1 0 2 0 0 0 0 0 0 0 3 4 3
300 371 429 489 679 859 1028 1054 1021 1024 1102 992 859 985 699 782 421 499 395 259 161 373 328 379 376 113 33 19 15 6 8 21 9 5 4 3 0 0 0 0 0 2 6 5
371 306 333 390 601 713 820 848 788 655 829 931 842 562 638 668 448 571 372 204 225 235 508 553 4 34 113 23 0 28 47 50 46 49 45 11 19 21 27 24 1 0 0 2
354 440 436 442 595 665 678 690 729 773 864 740 650 242 159 196 639 453 513 601 539 258 401 310 396 313 88 19 0 2 26 47 45 54 53 10 39 37 27 14 15 15 10 7
267 397 242 228 324 484 670 679 693 710 463 427 327 154 114 370 512 446 654 299 115 102 112 58 65 79 2 5 32 76 53 50 47 49 57 58 53 54 48 46 45 53 49 43
115 323 143 263 220 71 183 501 382 88 35 37 120 344 189 563 343 418 362 234 117 1 43 20 0 0 3 1 58 50 36 22 16 23 32 38 39 30 29 32 36 25 27 32
285 440 448 171 50 60 68 423 332 116 68 50 95 278 503 550 321 297 74 16 3 0 0 0 0 0 0 4 21 22 21 21 17 14 15 19 15 16 18 31 16 25 40 30
235 301 374 340 206 108 35 4 2 2 1 0 0 5 97 58 90 34 0 0 0 0 0 0 0 0 0 0 0 0 0 1 0 0 0 0 6 12 24 39 44 40 20 28
208 151 234 254 85 2 37 28 20 2 0 0 0 23 7 19 75 2 0 0 0 0 0 0 0 0 0 0 0 0 0 0 0 0 0 0 0 0 6 20 46 48 28 15
279 196 149 113 150 60 37 24 4 2 1 0 0 0 0 0 0 0 0 0 0 0 0 0 0 0 0 0 0 0 0 0 0 0 0 0 0 0 0 0 0 0 3 7
358 208 495 445 138 110 137 24 4 1 0 0 0 0 0 0 0 0 0 0 0 0 0 0 0 0 0 0 0 0 0 0 0 0 0 0 0 1 2 4 5 5 3 2